• In Hungary
  • List of Countries
  • For 7 days
  • Water Temperature
  • Satellite Maps
  • Weather Map
  • News
  • Weather Widgets
  • user-avatar
    Login

    Hourly Weather Djibouti

    Today, 20 August, Sunday

    Time Temperature Precipitation Wind Pressure Humidity
    00:00 +41°C° 0.1 mm 4 mps 751 mmHg 36%
    01:00 +40°C° 0.5 mm 4 mps 751 mmHg 39%
    02:00 +39°C° 0.5 mm 5 mps 751 mmHg 41%
    03:00 +37°C° 0.5 mm 5 mps 751 mmHg 44%
    04:00 +37°C° 0.3 mm 5 mps 752 mmHg 45%
    05:00 +37°C° 0.3 mm 5 mps 752 mmHg 46%
    06:00 +36°C° 0.3 mm 6 mps 752 mmHg 48%
    07:00 +38°C° 0.1 mm 6 mps 753 mmHg 45%
    08:00 +39°C° 0.1 mm 6 mps 753 mmHg 41%
    09:00 +40°C° 0.1 mm 6 mps 753 mmHg 38%
    10:00 +41°C° 0 mm 6 mps 753 mmHg 35%
    11:00 +42°C° 0 mm 6 mps 753 mmHg 32%
    12:00 +44°C° 0 mm 6 mps 752 mmHg 29%
    13:00 +45°C° 0 mm 5 mps 752 mmHg 28%
    14:00 +44°C° 0 mm 4 mps 751 mmHg 27%
    15:00 +44°C° 0 mm 4 mps 750 mmHg 26%
    16:00 +44°C° 0.2 mm 3 mps 750 mmHg 27%
    17:00 +44°C° 0.2 mm 3 mps 750 mmHg 28%
    18:00 +43°C° 0.2 mm 3 mps 750 mmHg 28%
    19:00 +42°C° 0.1 mm 2 mps 750 mmHg 30%
    20:00 +41°C° 0.1 mm 2 mps 751 mmHg 32%
    21:00 +41°C° 0.1 mm 2 mps 751 mmHg 33%
    22:00 +41°C° 0 mm 2 mps 751 mmHg 35%
    23:00 +40°C° 0 mm 1 mps 751 mmHg 36%

    Tomorrow, 21 August, Monday

    Time Temperature Precipitation Wind Pressure Humidity
    00:00 +40°C° 0 mm 1 mps 752 mmHg 37%
    01:00 +39°C° 0.1 mm 1 mps 751 mmHg 38%
    02:00 +39°C° 0.1 mm 2 mps 751 mmHg 38%
    03:00 +39°C° 0.1 mm 2 mps 751 mmHg 39%
    04:00 +38°C° 0.1 mm 3 mps 751 mmHg 39%
    05:00 +38°C° 0.1 mm 4 mps 751 mmHg 39%
    06:00 +37°C° 0.1 mm 5 mps 751 mmHg 39%
    07:00 +39°C° 0 mm 5 mps 752 mmHg 37%
    08:00 +40°C° 0 mm 6 mps 752 mmHg 34%
    09:00 +41°C° 0 mm 6 mps 752 mmHg 32%
    10:00 +42°C° 0 mm 6 mps 752 mmHg 29%
    11:00 +44°C° 0 mm 6 mps 751 mmHg 27%
    12:00 +46°C° 0 mm 6 mps 751 mmHg 24%
    13:00 +46°C° 0.1 mm 6 mps 750 mmHg 24%
    14:00 +46°C° 0.1 mm 5 mps 750 mmHg 23%
    15:00 +45°C° 0.1 mm 4 mps 749 mmHg 22%
    16:00 +45°C° 0.3 mm 4 mps 749 mmHg 23%
    17:00 +45°C° 0.3 mm 3 mps 748 mmHg 23%
    18:00 +44°C° 0.3 mm 3 mps 748 mmHg 24%
    19:00 +44°C° 0 mm 3 mps 749 mmHg 26%
    20:00 +43°C° 0 mm 3 mps 749 mmHg 28%
    21:00 +42°C° 0 mm 3 mps 750 mmHg 30%
    22:00 +42°C° 0 mm 3 mps 750 mmHg 32%
    23:00 +42°C° 0 mm 3 mps 750 mmHg 33%

    Day after tomorrow, 22 August, Tuesday

    Time Temperature Precipitation Wind Pressure Humidity
    00:00 +40°C° 0 mm 2 mps 750 mmHg 34%
    01:00 +40°C° 0.1 mm 2 mps 750 mmHg 36%
    02:00 +39°C° 0.1 mm 2 mps 750 mmHg 37%
    03:00 +39°C° 0.1 mm 3 mps 749 mmHg 39%
    04:00 +38°C° 0.2 mm 4 mps 750 mmHg 39%
    05:00 +39°C° 0.2 mm 5 mps 750 mmHg 40%
    06:00 +38°C° 0.2 mm 6 mps 751 mmHg 41%
    07:00 +39°C° 0 mm 6 mps 751 mmHg 38%
    08:00 +40°C° 0 mm 7 mps 751 mmHg 36%
    09:00 +41°C° 0 mm 7 mps 752 mmHg 33%
    10:00 +43°C° 0.1 mm 7 mps 752 mmHg 32%
    11:00 +44°C° 0.1 mm 7 mps 751 mmHg 30%
    12:00 +44°C° 0.1 mm 6 mps 751 mmHg 29%
    13:00 +45°C° 0 mm 6 mps 750 mmHg 28%
    14:00 +45°C° 0 mm 5 mps 749 mmHg 28%
    15:00 +46°C° 0 mm 5 mps 748 mmHg 27%
    16:00 +45°C° 0.1 mm 5 mps 748 mmHg 28%
    17:00 +45°C° 0.1 mm 5 mps 748 mmHg 29%
    18:00 +44°C° 0.1 mm 4 mps 748 mmHg 30%
    19:00 +43°C° 0.3 mm 4 mps 748 mmHg 31%
    20:00 +43°C° 0.3 mm 3 mps 749 mmHg 33%
    21:00 +42°C° 0.3 mm 3 mps 749 mmHg 35%
    22:00 +42°C° 0.1 mm 3 mps 749 mmHg 36%
    23:00 +40°C° 0.1 mm 3 mps 749 mmHg 38%

    23 August, Wednesday

    Time Temperature Precipitation Wind Pressure Humidity
    00:00 +40°C° 0.1 mm 2 mps 749 mmHg 39%
    01:00 +39°C° 0.3 mm 2 mps 749 mmHg 41%
    02:00 +39°C° 0.3 mm 2 mps 749 mmHg 42%
    03:00 +38°C° 0.3 mm 2 mps 749 mmHg 43%
    04:00 +38°C° 0.2 mm 2 mps 749 mmHg 44%
    05:00 +38°C° 0.2 mm 2 mps 750 mmHg 45%
    06:00 +37°C° 0.2 mm 3 mps 750 mmHg 46%
    07:00 +38°C° 0 mm 3 mps 751 mmHg 43%
    08:00 +38°C° 0 mm 4 mps 751 mmHg 41%
    09:00 +40°C° 0 mm 5 mps 752 mmHg 38%
    10:00 +41°C° 0 mm 6 mps 751 mmHg 37%
    11:00 +42°C° 0 mm 6 mps 751 mmHg 35%
    12:00 +42°C° 0 mm 6 mps 750 mmHg 33%
    13:00 +44°C° 0 mm 6 mps 750 mmHg 31%
    14:00 +43°C° 0 mm 5 mps 749 mmHg 30%
    15:00 +44°C° 0 mm 4 mps 748 mmHg 28%
    16:00 +44°C° 0.1 mm 4 mps 748 mmHg 29%
    17:00 +43°C° 0.1 mm 3 mps 748 mmHg 30%
    18:00 +43°C° 0.1 mm 3 mps 748 mmHg 31%
    19:00 +42°C° 0.5 mm 3 mps 749 mmHg 33%
    20:00 +42°C° 0.5 mm 3 mps 749 mmHg 35%
    21:00 +40°C° 0.5 mm 3 mps 750 mmHg 37%
    22:00 +40°C° 0 mm 2 mps 750 mmHg 39%
    23:00 +40°C° 0 mm 2 mps 750 mmHg 40%

    24 August, Thursday

    Time Temperature Precipitation Wind Pressure Humidity
    00:00 +39°C° 0 mm 1 mps 750 mmHg 42%
    01:00 +39°C° 0 mm 1 mps 749 mmHg 42%
    02:00 +39°C° 0 mm 1 mps 749 mmHg 43%
    03:00 +37°C° 0 mm 1 mps 749 mmHg 43%
    04:00 +38°C° 0.1 mm 2 mps 750 mmHg 44%
    05:00 +38°C° 0.1 mm 2 mps 750 mmHg 45%
    06:00 +38°C° 0.1 mm 3 mps 751 mmHg 46%
    07:00 +38°C° 0.2 mm 4 mps 751 mmHg 43%
    08:00 +40°C° 0.2 mm 4 mps 751 mmHg 39%
    09:00 +41°C° 0.2 mm 5 mps 752 mmHg 36%
    10:00 +41°C° 0 mm 5 mps 751 mmHg 34%
    11:00 +42°C° 0 mm 5 mps 751 mmHg 32%
    12:00 +43°C° 0 mm 5 mps 750 mmHg 30%
    13:00 +43°C° 0.2 mm 4 mps 750 mmHg 29%
    14:00 +44°C° 0.2 mm 3 mps 749 mmHg 29%
    15:00 +44°C° 0.2 mm 3 mps 748 mmHg 28%
    16:00 +44°C° 0.4 mm 3 mps 749 mmHg 29%
    17:00 +42°C° 0.4 mm 2 mps 749 mmHg 30%
    18:00 +42°C° 0.4 mm 2 mps 749 mmHg 32%
    19:00 +41°C° 0.1 mm 2 mps 749 mmHg 34%
    20:00 +41°C° 0.1 mm 2 mps 750 mmHg 36%
    21:00 +40°C° 0.1 mm 2 mps 750 mmHg 38%
    22:00 +40°C° 0 mm 2 mps 750 mmHg 39%
    23:00 +40°C° 0 mm 2 mps 750 mmHg 40%

    25 August, Friday

    Time Temperature Precipitation Wind Pressure Humidity
    00:00 +39°C° 0 mm 2 mps 750 mmHg 41%
    01:00 +39°C° 0.1 mm 2 mps 750 mmHg 42%
    02:00 +39°C° 0.1 mm 2 mps 750 mmHg 43%
    03:00 +38°C° 0.1 mm 3 mps 750 mmHg 43%
    04:00 +38°C° 0 mm 3 mps 750 mmHg 44%
    05:00 +38°C° 0 mm 3 mps 751 mmHg 44%
    06:00 +37°C° 0 mm 4 mps 751 mmHg 44%
    07:00 +38°C° 0.4 mm 4 mps 752 mmHg 42%
    08:00 +40°C° 0.4 mm 4 mps 752 mmHg 39%
    09:00 +40°C° 0.4 mm 4 mps 753 mmHg 36%
    10:00 +41°C° 0.2 mm 4 mps 752 mmHg 34%
    11:00 +42°C° 0.2 mm 4 mps 752 mmHg 33%
    12:00 +43°C° 0.2 mm 4 mps 751 mmHg 31%
    13:00 +43°C° 0 mm 3 mps 750 mmHg 30%
    14:00 +44°C° 0 mm 3 mps 750 mmHg 30%
    15:00 +44°C° 0 mm 3 mps 749 mmHg 30%
    16:00 +43°C° 0 mm 3 mps 749 mmHg 32%
    17:00 +42°C° 0 mm 3 mps 749 mmHg 34%
    18:00 +42°C° 0 mm 3 mps 749 mmHg 36%
    19:00 +40°C° 0.1 mm 3 mps 750 mmHg 38%
    20:00 +40°C° 0.1 mm 2 mps 750 mmHg 40%
    21:00 +39°C° 0.1 mm 2 mps 750 mmHg 42%
    22:00 +39°C° 0.8 mm 2 mps 750 mmHg 43%
    23:00 +39°C° 0.8 mm 1 mps 750 mmHg 43%
    Show more